User: anonymous   Login
Location: Munkebjergskolens Observatorium
(55.3864°N, 10.3987°E)
Time: 12:42:13
(UTC+01:00)
Language:

DELTA 1 DEB - Orbit

View from above orbital plane
View from above orbital plane
View from above satellite
View from above satellite

Ground track
Ground track

The orbit data is extracted from the following two-line orbital elements,

1 37671U 78026KJ  23330.82051889  .00001939  00000-0  82910-3 0  9994
2 37671  98.8679 340.6951 0028696 349.6946  10.3641 14.25946989538898
Epoch (UTC): 26 November 2023 19:41:32
Eccentricity: 0.0028696
inclination: 98.8679°
perigee height: 785 km
apogee height: 826 km
right ascension of ascending node: 340.6951°
argument of perigee: 349.6946°
revolutions per day: 14.25946989
mean anomaly at epoch: 10.3641°
orbit number at epoch: 53889

The dashed part of the orbit path shows where the satellite is in the earth's shadow,  

DLR